CAPE
0 0 2 1 0 23 61 32 45 5 9 17 8 0 0 0 0 0 0 0 0 0 2 1 1 0 0 0 0 0 0 0 0 0 0 0 0 0 0 0 0 0 0 0 0 0 0 0 0 0 0 0 0 0
0 1 0 0 54 71 64 51 36 16 2 7 6 0 0 0 0 0 0 0 0 0 0 1 1 2 2 2 0 0 0 0 2 0 0 0 0 0 0 0 0 0 0 0 0 0 0 0 0 0 0 0 0 0
1 1 0 2 32 21 61 60 16 18 15 3 1 0 0 0 0 0 0 0 0 0 0 0 0 1 1 0 0 0 0 0 0 0 0 0 0 0 0 0 0 0 0 0 0 0 0 0 0 0 0 0 0 0
8 5 24 29 19 26 42 57 28 7 9 3 4 0 0 0 0 0 0 0 0 0 0 0 1 1 1 0 0 0 1 0 0 0 0 0 0 0 0 0 0 0 0 0 0 0 0 0 0 0 0 0 0 0
18 30 57 27 31 29 41 39 37 12 4 5 5 0 0 0 0 0 0 0 0 0 0 0 0 0 1 1 1 0 0 0 0 0 0 0 0 0 0 0 0 0 0 0 0 0 0 0 0 0 0 0 0 0
16 40 29 25 8 6 6 25 27 8 4 6 3 0 0 0 0 0 0 0 0 0 0 0 0 0 0 1 0 0 0 0 1 1 0 1 1 0 0 0 0 0 0 0 0 0 0 0 0 0 0 0 0 0
27 37 33 24 16 5 0 21 34 17 1 3 0 0 0 0 0 0 0 1 0 0 0 0 1 0 0 1 0 0 1 0 1 1 2 2 0 0 0 0 0 0 0 0 0 0 0 0 0 0 0 0 0 0
17 8 27 13 9 8 9 20 13 7 3 0 0 0 0 0 0 0 0 0 0 0 0 0 0 0 0 1 0 0 0 0 0 0 0 0 0 1 0 0 0 0 0 0 0 0 0 0 0 0 0 0 0 0
0 0 0 0 1 2 1 0 4 0 0 0 0 0 0 0 0 0 0 0 0 0 0 0 0 0 0 0 0 0 0 0 0 0 0 0 0 0 0 0 0 2 2 0 1 0 0 0 0 0 0 0 0 0
0 0 0 0 0 0 0 0 0 0 0 0 0 0 0 0 0 0 0 0 0 0 0 0 0 0 0 0 0 0 0 0 0 0 0 0 0 0 0 0 0 0 0 0 4 0 0 0 0 0 0 0 0 0
0 0 0 0 0 0 0 0 0 0 0 0 0 0 0 0 0 0 0 0 0 0 0 0 0 0 0 0 0 0 0 0 0 0 0 0 0 0 0 0 0 0 0 0 0 0 0 0 0 0 0 0 0 0
0 0 0 0 0 0 0 0 0 0 0 0 0 0 0 0 0 0 0 0 0 0 0 0 0 0 0 0 0 0 0 0 0 0 0 0 0 0 0 0 0 0 0 0 0 0 0 0 0 0 0 0 0 0
0 0 0 0 0 0 0 0 0 0 0 0 0 0 0 0 0 0 0 0 0 0 0 0 0 1 1 0 0 0 0 0 0 0 0 0 0 0 0 0 0 0 0 0 0 0 0 0 0 0 0 0 0 0
0 0 0 0 0 0 0 0 0 0 0 0 0 0 0 0 0 0 0 0 0 0 0 0 0 0 0 0 0 0 0 0 0 0 0 0 0 0 0 0 0 0 0 0 0 0 0 0 0 0 0 0 0 0
0 0 0 0 0 0 0 0 0 0 0 0 0 0 0 0 0 0 0 0 0 0 0 0 0 0 0 0 0 0 0 0 0 0 0 0 0 0 0 0 0 0 0 0 0 0 0 0 0 0 0 0 0 0
0 0 0 0 0 0 0 0 0 0 0 0 0 0 0 0 0 0 0 0 0 0 0 0 0 0 0 0 0 0 0 0 0 0 0 0 0 0 0 0 0 0 0 0 0 0 0 0 0 0 0 0 0 0
0 0 0 0 0 0 0 0 0 0 0 0 0 0 0 0 0 0 0 0 0 0 0 0 0 0 0 0 0 0 0 0 0 0 0 0 0 0 0 0 0 0 0 0 0 0 0 0 0 0 0 0 0 0
0 0 0 0 0 0 0 0 0 0 0 0 0 0 0 0 0 0 0 0 0 0 0 0 0 0 0 0 0 0 0 0 0 0 0 0 0 0 0 0 0 0 0 0 0 0 0 0 0 0 0 0 0 0
0 0 0 0 0 0 0 0 0 0 0 0 0 0 0 0 0 0 0 0 0 0 0 0 0 0 0 0 0 0 0 0 0 0 0 0 0 0 0 0 0 0 0 0 0 0 0 0 0 0 0 0 0 0
0 0 0 0 0 0 0 0 0 0 0 0 0 0 0 0 0 0 0 0 0 0 0 0 0 0 0 0 0 0 0 0 0 0 0 0 0 0 0 0 0 0 0 0 0 0 0 0 0 0 0 0 0 0
0 0 0 0 0 0 0 0 0 0 0 0 0 0 0 0 0 0 0 0 0 0 0 0 0 0 0 0 0 0 0 0 0 0 0 0 0 0 0 0 0 0 0 0 0 0 0 0 0 0 0 0 0 0
0 0 0 0 0 0 0 0 0 0 0 0 0 0 0 0 0 0 0 0 0 0 0 0 0 0 0 0 0 0 0 0 0 0 0 0 0 0 0 0 0 0 0 0 0 0 0 0 0 0 0 0 0 0
0 0 0 0 0 0 0 0 0 0 0 0 0 0 0 0 0 0 0 0 0 0 0 0 0 0 0 0 0 0 0 0 0 0 0 0 0 0 0 0 0 0 0 0 0 0 0 0 0 0 0 0 0 0
0 0 0 0 0 0 0 0 0 0 0 0 0 0 0 0 0 0 0 0 0 0 0 0 0 0 0 0 0 0 0 0 0 0 0 0 0 0 0 0 0 0 0 0 0 0 0 0 0 0 0 0 0 0
0 0 0 0 0 0 0 0 0 0 0 0 0 0 0 0 0 0 0 0 0 0 0 0 0 0 0 0 0 0 0 0 0 0 0 0 0 0 0 0 0 0 0 0 0 0 0 0 0 0 0 0 0 0
0 0 0 0 0 0 0 0 0 0 0 0 0 0 0 0 0 0 0 0 0 0 0 0 0 0 0 0 0 0 0 0 0 0 0 0 0 0 0 0 0 0 0 0 0 0 0 0 0 0 0 0 0 0
0 0 0 0 0 0 0 0 0 0 0 0 0 0 0 0 0 0 0 0 0 0 0 0 0 0 0 0 0 0 0 0 0 0 0 0 0 0 0 0 0 0 0 0 0 0 0 0 0 0 0 0 0 0
0 0 0 0 0 0 0 0 0 0 0 0 0 0 0 0 0 0 0 0 0 0 0 0 0 0 0 0 0 0 0 0 0 0 0 0 0 0 0 0 0 0 0 0 0 0 0 0 0 0 0 0 0 0
0 0 0 0 0 0 0 0 0 0 0 0 0 0 0 0 0 0 0 0 0 0 0 0 0 0 0 0 0 0 0 0 0 0 0 0 0 0 0 0 0 0 0 0 0 0 0 0 0 0 0 0 0 0
0 0 0 0 0 0 0 0 0 0 0 0 0 0 0 0 0 0 0 0 0 0 0 0 0 0 0 0 0 0 0 0 0 0 0 0 0 0 0 0 0 0 0 0 0 0 0 0 0 0 0 0 0 0
0 0 0 0 0 0 0 0 0 0 0 0 0 0 0 0 0 0 0 0 0 0 0 0 0 0 0 0 0 0 0 0 0 0 0 0 0 0 0 0 0 0 0 0 0 0 0 0 0 0 0 0 0 0
0 0 0 0 0 0 0 0 0 0 0 0 0 0 0 0 0 0 0 0 0 0 0 0 0 0 0 0 0 0 0 0 0 0 0 0 0 0 0 0 0 0 0 0 0 0 0 0 0 0 0 0 0 0
0 0 0 0 0 0 0 0 0 0 0 0 0 0 0 0 0 0 0 0 0 0 0 0 0 0 0 0 0 0 0 0 0 0 0 0 0 0 0 0 0 0 0 0 0 0 0 0 0 0 0 0 0 0
CIN
-0 -0 -0 -0 -0 -8 -0 -0 -1 -0 -0 -0 -0 -0 -0 -0 -0 -0 -0 -0 -0 -0 -0 -0 -0 -0 -0 -0 -0 -0 -0 -0 -0 -0 -0 -0 -0 -0 -0 -0 -0 -0 -0 -0 -0 -0 -0 -0 -0 -0 -0 -0 -0 -0
-0 -0 -0 -0 -12 -3 -0 -0 -2 -0 -2 -0 -0 -0 -0 -0 -0 -0 -0 -0 -0 -0 -0 -0 -0 -0 -0 -0 -0 -0 -0 -0 -17 -0 -0 -0 -0 -0 -0 -0 -0 -0 -0 -0 -0 -0 -0 -0 -0 -0 -0 -0 -0 -0
-0 -0 -0 -2 -0 -0 -0 -0 -2 -0 -0 -0 -0 -0 -0 -0 -0 -0 -0 -0 -0 -0 -0 -0 -0 -0 -0 -0 -0 -0 -0 -0 -0 -0 -0 -0 -0 -0 -0 -0 -0 -0 -0 -0 -0 -0 -0 -0 -0 -0 -0 -0 -0 -0
-0 -0 -0 -0 -0 -0 -0 -0 -0 -0 -0 -0 -4 -0 -0 -0 -0 -0 -0 -0 -0 -0 -0 -0 -0 -0 -0 -0 -0 -0 -0 -0 -0 -0 -0 -0 -0 -0 -0 -0 -0 -0 -0 -0 -0 -0 -0 -0 -0 -0 -0 -0 -0 -0
-0 -2 -0 -0 -1 -1 -0 -0 -0 -1 -0 -0 -0 -0 -0 -0 -0 -0 -0 -0 -0 -0 -0 -0 -0 -0 -0 -0 -0 -0 -0 -0 -0 -0 -0 -0 -0 -0 -0 -0 -0 -0 -0 -0 -0 -0 -0 -0 -0 -0 -0 -0 -0 -0
-0 -0 -0 -0 -0 -0 -8 -1 -0 -3 -0 -0 -0 -0 -0 -0 -0 -0 -0 -0 -0 -0 -0 -0 -0 -0 -0 -0 -0 -0 -0 -0 -0 -0 -0 -0 -0 -0 -0 -0 -0 -0 -0 -0 -0 -0 -0 -0 -0 -0 -0 -0 -0 -0
-0 -0 -0 -0 -1 -0 -0 -2 -0 -0 -0 -0 -0 -0 -0 -0 -0 -0 -0 -0 -0 -0 -0 -0 -0 -0 -0 -0 -0 -0 -0 -0 -0 -0 -0 -0 -0 -0 -0 -0 -0 -0 -0 -0 -0 -0 -0 -0 -0 -0 -0 -0 -0 -0
-0 -1 -0 -0 -0 -0 -0 -0 -0 -7 -0 -0 -0 -0 -0 -0 -0 -0 -0 -0 -0 -0 -0 -0 -0 -0 -0 -0 -0 -0 -0 -0 -0 -0 -0 -0 -0 -0 -0 -0 -0 -0 -0 -0 -0 -0 -0 -0 -0 -0 -0 -0 -0 -0
-0 -0 -0 -0 -0 -0 -0 -0 -0 -0 -0 -0 -0 -0 -0 -0 -0 -0 -0 -0 -0 -0 -0 -0 -0 -0 -0 -0 -0 -0 -0 -0 -0 -0 -0 -0 -0 -0 -0 -0 -0 -0 -0 -0 -0 -0 -0 -0 -0 -0 -0 -0 -0 -0
-0 -0 -0 -0 -0 -0 -0 -0 -0 -0 -0 -0 -0 -0 -0 -0 -0 -0 -0 -0 -0 -0 -0 -0 -0 -0 -0 -0 -0 -0 -0 -0 -0 -0 -0 -0 -0 -0 -0 -0 -0 -0 -0 -0 -0 -0 -0 -0 -0 -0 -0 -0 -0 -0
-0 -0 -0 -0 -0 -0 -0 -0 -0 -0 -0 -0 -0 -0 -0 -0 -0 -0 -0 -0 -0 -0 -0 -0 -0 -0 -0 -0 -0 -0 -0 -0 -0 -0 -0 -0 -0 -0 -0 -0 -0 -0 -0 -0 -0 -0 -0 -0 -0 -0 -0 -0 -0 -0
-0 -0 -0 -0 -0 -0 -0 -0 -0 -0 -0 -0 -0 -0 -0 -0 -0 -0 -0 -0 -0 -0 -0 -0 -0 -0 -0 -0 -0 -0 -0 -0 -0 -0 -0 -0 -0 -0 -0 -0 -0 -0 -0 -0 -0 -0 -0 -0 -0 -0 -0 -0 -0 -0
-0 -0 -0 -0 -0 -0 -0 -0 -0 -0 -0 -0 -0 -0 -0 -0 -0 -0 -0 -0 -0 -0 -0 -0 -0 -0 -0 -0 -0 -0 -0 -0 -0 -0 -0 -0 -0 -0 -0 -0 -0 -0 -0 -0 -0 -0 -0 -0 -0 -0 -0 -0 -0 -0
-0 -0 -0 -0 -0 -0 -0 -0 -0 -0 -0 -0 -0 -0 -0 -0 -0 -0 -0 -0 -0 -0 -0 -0 -0 -0 -0 -0 -0 -0 -0 -0 -0 -0 -0 -0 -0 -0 -0 -0 -0 -0 -0 -0 -0 -0 -0 -0 -0 -0 -0 -0 -0 -0
-0 -0 -0 -0 -0 -0 -0 -0 -0 -0 -0 -0 -0 -0 -0 -0 -0 -0 -0 -0 -0 -0 -0 -0 -0 -0 -0 -0 -0 -0 -0 -0 -0 -0 -0 -0 -0 -0 -0 -0 -0 -0 -0 -0 -0 -0 -0 -0 -0 -0 -0 -0 -0 -0
-0 -0 -0 -0 -0 -0 -0 -0 -0 -0 -0 -0 -0 -0 -0 -0 -0 -0 -0 -0 -0 -0 -0 -0 -0 -0 -0 -0 -0 -0 -0 -0 -0 -0 -0 -0 -0 -0 -0 -0 -0 -0 -0 -0 -0 -0 -0 -0 -0 -0 -0 -0 -0 -0
-0 -0 -0 -0 -0 -0 -0 -0 -0 -0 -0 -0 -0 -0 -0 -0 -0 -0 -0 -0 -0 -0 -0 -0 -0 -0 -0 -0 -0 -0 -0 -0 -0 -0 -0 -0 -0 -0 -0 -0 -0 -0 -0 -0 -0 -0 -0 -0 -0 -0 -0 -0 -0 -0
-0 -0 -0 -0 -0 -0 -0 -0 -0 -0 -0 -0 -0 -0 -0 -0 -0 -0 -0 -0 -0 -0 -0 -0 -0 -0 -0 -0 -0 -0 -0 -0 -0 -0 -0 -0 -0 -0 -0 -0 -0 -0 -0 -0 -0 -0 -0 -0 -0 -0 -0 -0 -0 -0
-0 -0 -0 -0 -0 -0 -0 -0 -0 -0 -0 -0 -0 -0 -0 -0 -0 -0 -0 -0 -0 -0 -0 -0 -0 -0 -0 -0 -0 -0 -0 -0 -0 -0 -0 -0 -0 -0 -0 -0 -0 -0 -0 -0 -0 -0 -0 -0 -0 -0 -0 -0 -0 -0
-0 -0 -0 -0 -0 -0 -0 -0 -0 -0 -0 -0 -0 -0 -0 -0 -0 -0 -0 -0 -0 -0 -0 -0 -0 -0 -0 -0 -0 -0 -0 -0 -0 -0 -0 -0 -0 -0 -0 -0 -0 -0 -0 -0 -0 -0 -0 -0 -0 -0 -0 -0 -0 -0
-0 -0 -0 -0 -0 -0 -0 -0 -0 -0 -0 -0 -0 -0 -0 -0 -0 -0 -0 -0 -0 -0 -0 -0 -0 -0 -0 -0 -0 -0 -0 -0 -0 -0 -0 -0 -0 -0 -0 -0 -0 -0 -0 -0 -0 -0 -0 -0 -0 -0 -0 -0 -0 -0
-0 -0 -0 -0 -0 -0 -0 -0 -0 -0 -0 -0 -0 -0 -0 -0 -0 -0 -0 -0 -0 -0 -0 -0 -0 -0 -0 -0 -0 -0 -0 -0 -0 -0 -0 -0 -0 -0 -0 -0 -0 -0 -0 -0 -0 -0 -0 -0 -0 -0 -0 -0 -0 -0
-0 -0 -0 -0 -0 -0 -0 -0 -0 -0 -0 -0 -0 -0 -0 -0 -0 -0 -0 -0 -0 -0 -0 -0 -0 -0 -0 -0 -0 -0 -0 -0 -0 -0 -0 -0 -0 -0 -0 -0 -0 -0 -0 -0 -0 -0 -0 -0 -0 -0 -0 -0 -0 -0
-0 -0 -0 -0 -0 -0 -0 -0 -0 -0 -0 -0 -0 -0 -0 -0 -0 -0 -0 -0 -0 -0 -0 -0 -0 -0 -0 -0 -0 -0 -0 -0 -0 -0 -0 -0 -0 -0 -0 -0 -0 -0 -0 -0 -0 -0 -0 -0 -0 -0 -0 -0 -0 -0
-0 -0 -0 -0 -0 -0 -0 -0 -0 -0 -0 -0 -0 -0 -0 -0 -0 -0 -0 -0 -0 -0 -0 -0 -0 -0 -0 -0 -0 -0 -0 -0 -0 -0 -0 -0 -0 -0 -0 -0 -0 -0 -0 -0 -0 -0 -0 -0 -0 -0 -0 -0 -0 -0
-0 -0 -0 -0 -0 -0 -0 -0 -0 -0 -0 -0 -0 -0 -0 -0 -0 -0 -0 -0 -0 -0 -0 -0 -0 -0 -0 -0 -0 -0 -0 -0 -0 -0 -0 -0 -0 -0 -0 -0 -0 -0 -0 -0 -0 -0 -0 -0 -0 -0 -0 -0 -0 -0
-0 -0 -0 -0 -0 -0 -0 -0 -0 -0 -0 -0 -0 -0 -0 -0 -0 -0 -0 -0 -0 -0 -0 -0 -0 -0 -0 -0 -0 -0 -0 -0 -0 -0 -0 -0 -0 -0 -0 -0 -0 -0 -0 -0 -0 -0 -0 -0 -0 -0 -0 -0 -0 -0
-0 -0 -0 -0 -0 -0 -0 -0 -0 -0 -0 -0 -0 -0 -0 -0 -0 -0 -0 -0 -0 -0 -0 -0 -0 -0 -0 -0 -0 -0 -0 -0 -0 -0 -0 -0 -0 -0 -0 -0 -0 -0 -0 -0 -0 -0 -0 -0 -0 -0 -0 -0 -0 -0
-0 -0 -0 -0 -0 -0 -0 -0 -0 -0 -0 -0 -0 -0 -0 -0 -0 -0 -0 -0 -0 -0 -0 -0 -0 -0 -0 -0 -0 -0 -0 -0 -0 -0 -0 -0 -0 -0 -0 -0 -0 -0 -0 -0 -0 -0 -0 -0 -0 -0 -0 -0 -0 -0
-0 -0 -0 -0 -0 -0 -0 -0 -0 -0 -0 -0 -0 -0 -0 -0 -0 -0 -0 -0 -0 -0 -0 -0 -0 -0 -0 -0 -0 -0 -0 -0 -0 -0 -0 -0 -0 -0 -0 -0 -0 -0 -0 -0 -0 -0 -0 -0 -0 -0 -0 -0 -0 -0
-0 -0 -0 -0 -0 -0 -0 -0 -0 -0 -0 -0 -0 -0 -0 -0 -0 -0 -0 -0 -0 -0 -0 -0 -0 -0 -0 -0 -0 -0 -0 -0 -0 -0 -0 -0 -0 -0 -0 -0 -0 -0 -0 -0 -0 -0 -0 -0 -0 -0 -0 -0 -0 -0
-0 -0 -0 -0 -0 -0 -0 -0 -0 -0 -0 -0 -0 -0 -0 -0 -0 -0 -0 -0 -0 -0 -0 -0 -0 -0 -0 -0 -0 -0 -0 -0 -0 -0 -0 -0 -0 -0 -0 -0 -0 -0 -0 -0 -0 -0 -0 -0 -0 -0 -0 -0 -0 -0
-0 -0 -0 -0 -0 -0 -0 -0 -0 -0 -0 -0 -0 -0 -0 -0 -0 -0 -0 -0 -0 -0 -0 -0 -0 -0 -0 -0 -0 -0 -0 -0 -0 -0 -0 -0 -0 -0 -0 -0 -0 -0 -0 -0 -0 -0 -0 -0 -0 -0 -0 -0 -0 -0
Wind_Speed
20 21 19 21 21 23 19 9 8 10 8 10 9 7 5 7 9 10 11 12 15 19 18 19 21 25 27 30 39 31 31 33 33 33 34 30 32 33 30 29 30 29 28 33 35 40 49 24 22 28 30 24 27 22
20 22 21 23 19 9 9 12 3 8 11 7 8 6 6 8 9 9 9 10 8 14 16 15 14 16 21 24 28 33 32 33 29 32 31 28 29 29 29 32 28 34 32 30 31 36 21 19 27 26 25 26 24 23
21 26 30 27 15 13 8 10 4 1 4 7 7 9 8 8 9 8 7 9 7 11 13 15 18 17 17 21 23 33 31 30 28 26 27 29 32 27 31 31 26 30 29 33 33 37 34 29 25 24 24 27 25 24
14 12 19 12 9 6 4 4 4 2 1 3 6 10 9 8 7 7 8 12 10 12 20 17 14 15 18 18 21 23 27 27 24 26 29 31 32 30 34 29 30 27 25 33 38 34 28 30 26 24 23 23 20 18
11 12 12 10 7 5 5 5 4 3 2 2 4 3 4 3 3 4 6 9 11 13 21 19 15 15 14 13 16 18 21 27 31 32 34 34 30 30 30 30 34 31 32 35 43 31 32 30 24 21 22 22 20 19
7 8 8 7 6 4 3 3 2 2 2 2 4 7 8 10 13 14 14 13 14 13 14 23 16 17 16 15 13 16 22 24 28 31 32 30 28 30 32 37 30 30 29 30 33 25 27 23 20 21 22 20 19 18
6 7 8 7 3 5 3 3 4 3 2 4 5 8 9 10 11 14 15 19 20 16 13 19 22 18 17 17 17 17 17 22 25 28 30 31 31 29 34 38 30 30 30 28 24 22 26 22 23 18 17 17 16 15
15 15 13 11 10 10 7 8 7 8 6 4 4 6 5 5 6 12 15 17 17 14 14 19 21 20 16 20 21 20 20 21 22 24 24 28 29 31 38 34 31 29 26 24 26 26 24 18 15 15 14 14 14 15
20 17 18 18 16 11 9 7 6 6 4 4 7 9 11 12 14 17 21 17 13 14 17 18 23 26 18 19 20 21 21 24 22 27 28 27 29 32 29 29 28 27 27 28 24 17 17 16 15 15 15 15 16 18
22 23 21 19 16 14 11 7 7 7 8 10 10 10 11 13 18 16 15 17 16 18 16 17 17 20 18 21 22 23 22 24 28 26 24 29 31 24 24 23 24 23 26 25 23 21 19 19 19 18 19 18 18 19
24 23 20 19 18 15 13 10 7 9 10 12 13 12 13 16 14 14 14 15 18 18 19 19 19 18 18 21 23 21 25 24 29 28 29 31 33 27 22 22 21 21 20 20 19 18 19 18 19 19 19 19 19 20
24 23 22 19 19 17 12 11 10 9 11 11 9 12 15 16 17 17 17 18 18 20 21 21 21 20 20 19 20 21 25 26 31 25 29 33 27 23 23 23 21 21 18 17 18 17 18 17 17 17 18 19 19 20
21 22 23 22 19 19 18 15 14 12 14 14 16 17 19 20 20 21 23 21 21 22 21 22 21 22 21 20 20 21 26 29 23 29 31 30 26 23 23 23 22 21 20 19 18 18 18 18 19 18 20 21 21 22
19 21 23 22 22 22 22 21 21 18 17 18 19 21 20 20 20 21 22 22 21 22 24 24 23 22 21 21 21 25 24 23 30 35 34 26 24 23 22 22 21 21 21 20 21 21 21 22 21 21 22 23 24 25
19 21 25 27 27 28 26 27 24 19 18 18 19 21 20 19 18 19 19 20 20 23 22 21 22 22 22 23 23 23 26 31 31 31 26 24 23 22 21 21 22 22 22 22 22 23 23 24 24 24 24 24 23 24
21 21 25 29 29 30 29 26 23 17 16 16 16 16 16 17 17 18 19 19 20 22 20 19 21 23 23 24 27 30 30 32 28 25 24 23 22 21 20 21 22 23 23 23 24 24 25 25 26 26 25 25 25 26
23 20 27 30 31 29 30 23 19 17 16 16 15 14 14 15 16 17 18 20 21 19 18 18 20 22 22 24 27 25 28 26 24 24 22 22 22 21 21 21 21 22 22 23 25 25 27 27 27 27 28 28 27 27
14 16 27 30 30 27 22 20 15 15 15 15 15 16 15 16 17 17 19 20 19 19 19 19 19 20 22 24 25 24 22 21 21 22 21 21 22 22 23 24 24 24 25 26 26 27 28 29 29 29 29 29 30 30
9 3 11 20 18 21 16 17 16 14 15 16 16 15 15 16 16 18 19 19 18 18 19 19 20 21 21 21 22 21 21 22 24 24 24 24 24 24 24 25 26 26 27 28 28 29 30 30 31 31 31 31 32 33
10 7 4 8 14 19 17 16 15 15 15 15 15 15 15 16 18 18 18 19 18 17 18 19 20 20 20 21 21 21 21 21 23 24 24 22 23 24 25 27 28 28 29 30 30 30 31 31 31 30 31 33 34 34
12 9 8 16 19 23 23 16 20 18 17 16 15 15 15 15 16 17 18 20 18 18 19 19 20 20 20 21 21 21 22 21 23 23 25 27 25 27 29 29 29 29 31 32 32 32 31 32 32 32 33 33 33 33
15 13 18 18 21 21 23 16 18 17 20 20 18 16 15 15 16 18 21 18 17 18 18 19 20 21 22 23 22 22 23 24 25 27 28 28 30 29 30 29 31 33 33 33 33 34 34 33 32 32 33 33 33 34
14 16 18 17 19 18 17 12 17 15 16 14 15 17 18 18 18 20 17 16 17 17 18 19 20 20 22 23 22 23 22 23 26 27 28 29 30 30 31 32 31 33 35 34 31 32 33 32 31 32 32 32 33 34
17 19 19 19 18 18 15 16 15 13 13 14 13 13 12 10 12 17 17 17 18 19 19 20 20 22 22 22 23 23 22 21 24 26 26 27 30 30 29 31 30 30 31 32 32 32 32 33 32 33 33 34 35 36
20 19 18 19 17 17 17 16 15 15 15 13 12 12 11 8 10 11 11 12 14 16 17 18 19 20 22 24 24 24 21 21 25 29 28 26 30 33 34 33 32 32 31 33 34 34 35 34 34 35 35 35 36 38
25 20 21 20 18 18 16 16 16 15 14 14 13 12 13 12 11 11 12 14 15 16 16 17 19 22 22 19 25 26 25 20 22 27 29 26 27 30 34 37 39 37 28 29 32 34 35 35 35 36 37 37 37 39
25 23 20 18 18 17 17 16 16 15 15 14 14 13 13 12 12 12 13 13 13 13 14 13 13 13 15 18 18 19 20 19 19 24 27 28 27 26 27 32 35 32 28 28 29 31 34 35 36 36 37 37 36 37
23 22 23 20 19 18 19 17 17 16 15 15 14 14 13 12 12 11 11 12 11 13 13 13 12 11 11 12 17 20 21 21 22 24 27 26 22 22 22 24 25 28 30 30 31 31 32 34 36 37 38 40 41 38
22 22 22 22 21 19 17 18 17 16 15 14 14 12 12 9 8 8 7 7 7 6 3 3 4 6 4 5 6 8 10 14 20 24 28 31 33 31 25 25 27 28 29 31 31 31 33 34 36 38 39 40 41 41
21 21 21 21 21 20 18 16 15 14 12 11 10 8 7 5 3 5 6 6 5 4 4 4 3 3 3 4 5 5 4 5 6 10 15 19 22 24 24 25 26 27 29 31 34 36 36 37 38 39 40 40 40 42
19 19 19 19 18 18 16 14 12 12 12 13 12 10 9 9 7 7 7 7 6 5 4 4 6 7 8 9 10 11 12 12 11 11 13 16 19 23 27 30 31 32 32 33 35 36 37 38 38 41 41 42 42 43
17 18 19 19 19 17 16 17 15 14 14 14 14 14 14 14 14 12 12 11 9 6 4 7 10 12 13 13 14 14 14 17 19 21 21 23 24 27 29 31 33 34 36 38 38 39 39 41 43 43 44 45 44 44
15 15 16 17 18 19 19 19 15 14 13 13 14 14 14 14 15 13 11 7 4 5 6 8 10 12 14 16 17 19 20 22 23 25 26 27 28 30 31 32 33 34 35 37 38 39 40 41 42 43 44 45 46 46
Wind_Direction
243 234 233 222 223 214 209 211 208 209 222 220 227 242 278 318 323 301 298 297 263 240 240 240 238 228 226 225 218 218 213 223 222 221 226 233 239 236 243 238 232 234 235 245 248 255 260 263 253 250 268 284 287 291
225 224 218 205 208 190 198 208 173 215 222 238 243 260 290 315 327 318 304 301 314 253 236 245 245 246 238 239 229 219 226 218 226 224 235 236 239 237 239 243 244 240 240 242 241 250 281 266 264 267 276 280 279 279
223 208 194 193 186 189 183 201 162 131 216 240 254 256 272 299 323 330 323 295 303 245 242 246 243 253 256 249 245 226 230 229 235 238 235 239 241 241 237 244 241 247 244 252 255 258 261 265 271 269 274 275 282 286
147 157 160 162 166 168 135 167 161 112 27 249 257 250 260 272 311 321 313 286 290 270 236 243 268 255 265 259 245 245 238 236 238 238 238 240 241 247 242 249 248 250 245 251 258 263 268 262 264 268 270 273 281 291
123 100 114 121 117 108 94 94 180 196 27 310 254 290 257 289 343 346 316 306 295 280 238 239 263 270 273 274 255 248 241 236 235 237 239 242 245 248 250 249 250 248 252 252 257 260 261 266 258 264 266 270 276 279
100 107 101 97 90 82 80 71 54 238 336 338 243 233 264 270 268 263 268 283 297 283 271 240 264 262 269 270 270 257 248 245 241 241 242 246 250 249 248 249 256 256 259 262 263 267 265 263 259 258 264 269 277 279
60 65 65 62 60 40 14 40 39 32 303 308 289 269 280 294 283 270 266 268 275 272 282 250 247 262 274 267 261 264 262 252 249 245 247 246 248 251 252 252 260 262 263 266 264 263 262 260 263 261 261 269 274 280
60 55 52 46 44 40 32 61 45 47 48 38 14 5 335 320 302 276 278 285 276 272 284 258 254 253 283 259 255 265 259 258 257 252 253 250 252 253 254 258 262 264 263 264 268 268 265 261 259 257 260 262 266 271
52 53 47 43 44 38 34 34 31 26 10 327 296 293 292 296 280 271 276 276 293 282 268 266 252 247 276 268 264 262 263 256 264 253 253 254 252 252 257 258 258 263 260 266 273 268 262 256 254 254 254 262 265 271
49 49 44 37 30 25 15 330 282 295 289 282 286 291 294 290 278 282 283 274 277 279 280 273 277 266 275 266 262 261 265 259 255 259 262 256 255 261 265 266 267 268 269 272 259 259 256 255 259 262 265 271 273 276
41 38 33 29 23 18 11 352 306 287 303 297 284 285 284 287 299 299 286 282 278 269 276 272 273 273 285 268 264 271 261 263 256 259 258 256 254 257 267 269 273 274 275 277 274 274 273 265 263 265 271 274 276 279
34 30 26 21 16 8 354 341 332 314 307 311 310 307 299 301 295 287 281 284 284 271 278 271 272 274 275 279 274 276 265 263 257 266 260 257 262 263 264 268 273 276 278 276 278 276 277 279 279 276 276 278 280 283
23 20 17 11 3 358 350 334 324 318 297 306 302 288 287 286 284 276 273 279 277 282 280 274 270 273 273 278 275 275 267 262 273 261 260 263 269 269 269 271 273 278 278 278 279 280 282 281 284 283 280 284 287 288
10 8 2 356 350 345 343 336 329 319 314 302 292 281 285 286 288 284 280 279 284 283 279 273 270 272 274 270 273 267 271 274 263 260 262 273 274 274 274 276 277 278 282 281 279 280 281 281 283 285 286 288 288 288
347 349 352 346 342 339 333 338 338 331 309 300 300 286 287 290 290 291 290 287 289 288 283 276 272 274 270 269 271 269 267 263 264 266 277 281 278 279 277 277 278 280 281 281 282 281 282 283 283 284 289 291 291 292
335 337 335 332 334 335 333 334 335 331 321 308 305 296 295 290 290 292 293 292 296 289 286 282 276 272 270 271 266 264 265 265 272 280 283 282 281 282 281 281 280 281 282 283 283 284 284 285 284 285 289 292 293 293
359 336 323 328 332 336 339 338 328 326 317 308 302 308 304 299 296 296 296 295 296 287 283 281 274 273 279 271 268 273 272 277 282 283 286 284 282 283 285 285 285 286 287 287 288 288 289 289 289 288 287 290 295 294
328 293 318 324 327 332 336 340 339 331 323 317 304 304 306 305 298 300 301 301 299 292 286 284 286 282 280 277 277 282 286 288 287 286 289 289 287 286 287 287 289 290 290 289 289 289 289 290 290 290 291 292 294 294
105 298 302 316 14 1 331 332 329 329 325 315 310 305 303 301 302 299 301 301 300 299 293 289 286 283 284 290 290 291 290 288 286 287 288 288 288 288 290 292 292 292 292 292 292 292 292 292 292 293 293 294 294 295
100 87 68 92 98 102 2 340 333 346 330 321 314 303 300 300 297 299 300 304 303 300 295 293 289 292 295 294 297 294 295 298 294 292 292 295 296 295 293 294 294 295 294 295 294 295 294 294 294 294 295 296 296 296
98 96 99 96 95 90 92 114 9 1 359 347 326 314 304 303 305 305 304 305 310 306 299 301 300 301 301 301 299 299 299 299 297 297 296 295 300 298 296 296 297 296 295 295 294 294 294 294 296 297 297 298 299 299
93 94 94 96 94 96 91 101 102 106 79 30 358 339 333 323 314 312 304 314 315 314 313 310 308 307 304 303 304 303 301 300 298 298 298 298 297 298 298 299 298 296 296 295 295 294 295 297 298 299 299 300 300 300
87 87 87 85 89 89 95 109 97 101 103 113 106 48 4 341 330 319 325 329 327 331 328 324 322 320 314 311 310 308 308 305 302 301 299 299 299 299 299 298 298 297 296 297 298 297 297 299 299 299 300 300 300 300
80 80 80 79 78 81 89 83 91 98 103 98 100 105 115 134 241 8 346 340 339 336 333 330 328 321 321 318 315 315 316 315 310 308 307 305 301 302 304 303 302 301 300 301 300 299 299 299 299 299 298 298 299 299
75 71 74 68 71 70 73 74 79 78 81 86 92 95 101 127 95 80 68 49 25 9 358 349 341 337 328 323 321 321 323 321 315 309 311 310 307 305 304 304 304 303 304 301 300 300 299 299 299 298 298 298 298 298
64 67 65 62 65 68 68 68 67 69 73 76 77 71 66 69 73 74 57 37 24 15 6 360 348 339 334 337 325 322 325 330 324 316 314 315 313 309 306 304 303 304 307 305 303 301 301 300 299 299 298 298 298 298
59 58 62 70 67 70 71 72 71 72 71 71 66 61 62 64 62 59 44 37 30 28 21 15 10 1 353 346 342 337 333 331 326 323 320 318 316 314 311 309 308 310 312 310 307 305 304 303 302 302 301 302 301 301
57 57 50 55 62 68 63 66 71 74 76 75 64 69 72 74 65 61 54 42 39 25 18 14 11 6 359 353 347 341 338 335 332 327 324 321 319 318 315 312 310 310 309 309 307 306 304 303 302 302 301 301 301 302
52 51 51 53 56 64 67 64 67 73 73 71 69 73 78 100 109 95 85 90 84 75 62 39 29 24 0 349 345 343 344 343 338 333 328 324 323 324 324 321 318 315 312 310 308 306 305 303 302 301 301 301 301 301
47 46 47 50 50 53 62 69 65 65 74 80 83 79 74 81 116 142 158 147 141 124 92 61 39 29 349 350 325 322 341 337 328 326 328 328 331 333 330 325 321 318 315 312 310 308 306 304 303 302 300 300 301 300
43 43 44 46 47 51 54 59 59 64 70 74 81 78 70 64 74 91 125 141 140 122 89 45 34 35 24 14 5 355 345 352 338 323 315 315 319 322 322 321 319 318 315 313 311 309 307 306 304 303 301 300 300 299
38 39 36 35 37 41 45 46 50 59 62 63 64 65 62 59 58 70 76 85 88 80 64 36 22 18 19 11 4 355 342 338 335 331 325 322 320 321 321 320 318 316 313 311 309 308 307 304 303 302 301 301 301 300
27 30 30 30 31 34 34 32 42 45 54 54 54 54 53 53 48 56 62 92 93 57 25 13 4 359 356 353 349 346 343 339 336 334 330 326 323 321 321 320 319 317 315 313 311 309 307 305 304 303 302 301 301 301